Orlando International, FL

6:18 PM EDT on October 20, 2017 (GMT -0400)
Orlando International

Weather History for KMCO - December, 2012

Change the Weather History Date:

Sunday, December 30, 2012

  Actual Average Record
Temperature  
Mean Temperature 48 °F 60 °F  
Max Temperature 56 °F 71 °F 87 °F (2015)
Min Temperature 39 °F 50 °F 25 °F (1909)
Degree Days  
Heating Degree Days 17 6  
Month to date heating degree days 85 139  
Since 1 July heating degree days 161 186  
Cooling Degree Days 0 2  
Month to date cooling degree days 97 69  
Year to date cooling degree days 3588 3423  
Moisture  
Dew Point 39 °F    
Average Humidity 66    
Maximum Humidity 77    
Minimum Humidity 55    
Precipitation  
Precipitation 0.00 in 0.07 in 0.72 in (1914)
Month to date precipitation 1.28 2.50  
Year to date precipitation 41.09 50.65  
Sea Level Pressure  
Sea Level Pressure 30.31 in    
Wind  
Wind Speed 12 mph (North)    
Max Wind Speed 24 mph    
Max Gust Speed 29 mph    
Visibility 10 miles    
Events      
T = Trace of Precipitation, MM = Missing Value Source: NWS Daily Summary

Daily Weather History Graph

Daily Weather History Graph

Search for Another Location

Airport or City:

Trip Planner

Search our weather history database for the weather conditions in past years. The results will help you decide how hot, cold, wet, or windy it might be!

Date:

Astronomy

Dec. 30, 2012 Rise Set
Actual Time 7:17 AM EST 5:39 PM EST
Civil Twilight 6:51 AM EST 6:04 PM EST
Nautical Twilight 6:22 AM EST 6:34 PM EST
Astronomical Twilight 5:53 AM EST 7:03 PM EST
Moon 7:56 PM EST (12/30) 8:36 AM EST (12/30)
Length of Visible Light 11h 13m
Length of Day
10h 21m
Waning Gibbous, 95% of the Moon is Illuminated
Dec 30
Waning Gibbous
Jan 4
Last Quarter
Jan 11
New
Jan 18
First Quarter
Jan 26
Full

Hourly Weather History & Observations

Time (EST) Temp. Windchill Dew Point Humidity Pressure Visibility Wind Dir Wind Speed Gust Speed Precip Events Conditions
12:53 AM 50.0 °F - 42.1 °F 74% 30.17 in 10.0 mi NW 16.1 mph 20.7 mph N/A   Clear
1:53 AM 48.0 °F - 39.9 °F 74% 30.19 in 10.0 mi NNW 21.9 mph 26.5 mph N/A   Partly Cloudy
2:53 AM 44.1 °F 35.7 °F 35.1 °F 71% 30.22 in 10.0 mi NNW 20.7 mph 25.3 mph N/A   Clear
3:53 AM 43.0 °F 35.1 °F 34.0 °F 71% 30.24 in 10.0 mi NNW 17.3 mph 25.3 mph N/A   Clear
4:53 AM 42.1 °F 34.5 °F 33.1 °F 70% 30.25 in 10.0 mi North 15.0 mph 23.0 mph N/A   Scattered Clouds
5:53 AM 41.0 °F 33.5 °F 33.1 °F 73% 30.28 in 10.0 mi NNW 13.8 mph - N/A   Partly Cloudy
6:53 AM 39.9 °F 33.9 °F 32.0 °F 73% 30.31 in 10.0 mi NNW 9.2 mph - N/A   Partly Cloudy
7:53 AM 39.9 °F 32.9 °F 32.0 °F 73% 30.32 in 10.0 mi NNW 11.5 mph - N/A   Mostly Cloudy
8:53 AM 43.0 °F 36.8 °F 33.1 °F 68% 30.35 in 10.0 mi North 11.5 mph - N/A   Mostly Cloudy
9:53 AM 46.0 °F 39.9 °F 33.1 °F 61% 30.37 in 10.0 mi North 13.8 mph - N/A   Mostly Cloudy
10:53 AM 48.0 °F - 35.1 °F 61% 30.38 in 10.0 mi North 15.0 mph 20.7 mph N/A   Mostly Cloudy
11:53 AM 50.0 °F - 37.0 °F 61% 30.36 in 10.0 mi North 12.7 mph 23.0 mph N/A   Mostly Cloudy
12:53 PM 52.0 °F - 37.9 °F 59% 30.34 in 10.0 mi North 13.8 mph - N/A   Mostly Cloudy
1:53 PM 53.1 °F - 39.0 °F 59% 30.32 in 10.0 mi NNE 12.7 mph 20.7 mph N/A   Mostly Cloudy
2:53 PM 55.0 °F - 39.0 °F 55% 30.32 in 10.0 mi North 12.7 mph - N/A   Mostly Cloudy
3:53 PM 55.9 °F - 41.0 °F 57% 30.33 in 10.0 mi NNE 13.8 mph - N/A   Mostly Cloudy
4:43 PM 53.6 °F - 42.8 °F 67% 30.34 in 10.0 mi NNE 11.5 mph - N/A   Mostly Cloudy
4:53 PM 54.0 °F - 42.1 °F 64% 30.34 in 10.0 mi NNE 12.7 mph - N/A   Overcast
5:53 PM 53.1 °F - 43.0 °F 69% 30.35 in 10.0 mi North 9.2 mph - N/A   Overcast
6:53 PM 53.1 °F - 44.1 °F 71% 30.35 in 10.0 mi North 8.1 mph - N/A   Overcast
7:53 PM 52.0 °F - 44.1 °F 74% 30.35 in 10.0 mi North 8.1 mph - N/A   Overcast
8:01 PM 51.8 °F - 44.6 °F 76% 30.35 in 10.0 mi North 9.2 mph - N/A   Overcast
8:53 PM 52.0 °F - 44.1 °F 74% 30.35 in 10.0 mi NNW 9.2 mph - N/A   Overcast
9:53 PM 51.1 °F - 44.1 °F 77% 30.36 in 10.0 mi NNW 9.2 mph - N/A   Mostly Cloudy
10:53 PM 50.0 °F - 43.0 °F 77% 30.36 in 10.0 mi NW 5.8 mph - N/A   Mostly Cloudy
11:53 PM 48.9 °F - 43.0 °F 80% 30.36 in 10.0 mi NW 4.6 mph - N/A   Mostly Cloudy